| time (UTC) | temp F | wind direction | speed MPH | gust MPH | rain 1hr in | rain 24hr in | rain mn in | humidity % | barometer mb |
| 20260902154901 | 72 | 98 | 8.0 | 16.0 | 0.00 | 0.00 | 0.00 | 60 | 1013.3 |
| 20260902153839 | 71 | 101 | 9.0 | 15.0 | 0.00 | 0.00 | 0.00 | 60 | 1013.3 |
| 20260902151711 | 69 | 134 | 7.0 | 14.0 | 0.00 | 0.00 | 0.00 | 67 | 1013.3 |
| 20260902150639 | 68 | 93 | 8.0 | 14.0 | 0.00 | 0.00 | 0.00 | 71 | 1013.6 |
| 20260902145618 | 66 | 107 | 9.0 | 14.0 | 0.00 | 0.00 | 0.00 | 73 | 1013.6 |
| 20260902144603 | 65 | 112 | 7.0 | 11.0 | 0.00 | 0.00 | 0.00 | 75 | 1013.7 |
| 20260902143614 | 64 | 108 | 7.0 | 12.0 | 0.00 | 0.00 | 0.00 | 76 | 1013.7 |
| 20260902141452 | 62 | 109 | 6.0 | 12.0 | 0.00 | 0.00 | 0.00 | 80 | 1013.8 |
| 20260902140457 | 61 | 113 | 6.0 | 10.0 | 0.00 | 0.00 | 0.00 | 82 | 1013.9 |
| 20260902135433 | 60 | 99 | 6.0 | 10.0 | 0.00 | 0.00 | 0.00 | 84 | 1013.8 |
| 20260902134442 | 59 | 91 | 7.0 | 10.0 | 0.00 | 0.00 | 0.00 | 85 | 1013.8 |
| 20260902133415 | 58 | 94 | 6.0 | 10.0 | 0.00 | 0.00 | 0.00 | 86 | 1013.9 |
| 20260902131242 | 56 | 98 | 6.0 | 9.0 | 0.00 | 0.00 | 0.00 | 88 | 1014.0 |
| 20260902130237 | 56 | 81 | 6.0 | 9.0 | 0.00 | 0.00 | 0.00 | 88 | 1013.9 |
| 20260902125226 | 55 | 101 | 6.0 | 9.0 | 0.00 | 0.00 | 0.00 | 88 | 1013.9 |
| 20260902124217 | 55 | 87 | 6.0 | 9.0 | 0.00 | 0.00 | 0.00 | 88 | 1013.9 |
| 20260902123216 | 55 | 86 | 6.0 | 9.0 | 0.00 | 0.00 | 0.00 | 88 | 1014.0 |
| 20260902122151 | 55 | 84 | 6.0 | 8.0 | 0.00 | 0.00 | 0.00 | 88 | 1014.0 |
| 20260902121217 | 55 | 101 | 6.0 | 10.0 | 0.00 | 0.00 | 0.00 | 88 | 1014.0 |
| 20260902120210 | 55 | 113 | 6.0 | 10.0 | 0.00 | 0.00 | 0.00 | 88 | 1014.0 |
| 20260902115233 | 55 | 96 | 6.0 | 8.0 | 0.00 | 0.00 | 0.00 | 88 | 1013.9 |
| 20260902114200 | 55 | 101 | 6.0 | 7.0 | 0.00 | 0.00 | 0.00 | 88 | 1014.0 |
| 20260902112025 | 55 | 103 | 5.0 | 8.0 | 0.00 | 0.00 | 0.00 | 89 | 1014.1 |
| 20260902111034 | 54 | 87 | 5.0 | 8.0 | 0.00 | 0.00 | 0.00 | 90 | 1014.2 |
| 20260902110028 | 54 | 88 | 5.0 | 8.0 | 0.00 | 0.00 | 0.00 | 90 | 1014.1 |
| 20260902105032 | 53 | 84 | 5.0 | 8.0 | 0.00 | 0.00 | 0.00 | 89 | 1014.2 |
| 20260902103959 | 53 | 76 | 5.0 | 6.0 | 0.00 | 0.00 | 0.00 | 89 | 1014.3 |
| 20260902103023 | 54 | 78 | 4.0 | 6.0 | 0.00 | 0.00 | 0.00 | 88 | 1014.3 |
| 20260902102018 | 54 | 86 | 4.0 | 7.0 | 0.00 | 0.00 | 0.00 | 87 | 1014.3 |
| 20260902095919 | 55 | 85 | 4.0 | 6.0 | 0.00 | 0.00 | 0.00 | 87 | 1014.3 |
| 20260902094922 | 55 | 88 | 3.0 | 5.0 | 0.00 | 0.00 | 0.00 | 86 | 1014.3 |
| 20260902093850 | 56 | 89 | 4.0 | 7.0 | 0.00 | 0.00 | 0.00 | 85 | 1014.3 |
| 20260902092830 | 56 | 84 | 5.0 | 8.0 | 0.00 | 0.00 | 0.00 | 85 | 1014.2 |
| 20260902091852 | 56 | 94 | 5.0 | 8.0 | 0.00 | 0.00 | 0.00 | 85 | 1014.2 |
| 20260902085739 | 56 | 92 | 3.0 | 7.0 | 0.00 | 0.00 | 0.00 | 85 | 1014.3 |
| 20260902083543 | 55 | 86 | 5.0 | 7.0 | 0.00 | 0.00 | 0.00 | 86 | 1014.3 |
| 20260902081442 | 56 | 86 | 5.0 | 6.0 | 0.00 | 0.00 | 0.00 | 85 | 1014.3 |
| 20260902080429 | 57 | 90 | 4.0 | 7.0 | 0.00 | 0.00 | 0.00 | 83 | 1014.4 |
| 20260902075407 | 57 | 101 | 4.0 | 7.0 | 0.00 | 0.00 | 0.00 | 83 | 1014.5 |
| 20260902074407 | 57 | 107 | 4.0 | 7.0 | 0.00 | 0.00 | 0.00 | 84 | 1014.6 |
| 20260902073421 | 57 | 103 | 4.0 | 9.0 | 0.00 | 0.00 | 0.00 | 84 | 1014.6 |
| 20260902072437 | 57 | 108 | 4.0 | 9.0 | 0.00 | 0.00 | 0.00 | 84 | 1014.7 |
| 20260902071413 | 58 | 100 | 4.0 | 7.0 | 0.00 | 0.00 | 0.00 | 84 | 1014.6 |
| 20260902070419 | 58 | 100 | 5.0 | 7.0 | 0.00 | 0.00 | 0.00 | 83 | 1014.5 |
| 20260902065416 | 58 | 95 | 4.0 | 5.0 | 0.00 | 0.00 | 0.00 | 82 | 1014.6 |
| 20260902064408 | 58 | 103 | 3.0 | 5.0 | 0.00 | 0.00 | 0.00 | 82 | 1014.7 |
| 20260902061207 | 58 | 94 | 3.0 | 6.0 | 0.00 | 0.00 | 0.00 | 83 | 1014.7 |
| 20260902060206 | 58 | 92 | 3.0 | 5.0 | 0.00 | 0.00 | 0.00 | 82 | 1014.7 |
| 20260902055223 | 58 | 93 | 3.0 | 5.0 | 0.00 | 0.00 | 0.00 | 81 | 1014.8 |
| 20260902054207 | 59 | 89 | 2.0 | 5.0 | 0.00 | 0.00 | 0.00 | 80 | 1014.8 |
| 20260902053201 | 59 | 101 | 3.0 | 6.0 | 0.00 | 0.00 | 0.00 | 79 | 1014.7 |
| 20260902052138 | 60 | 104 | 4.0 | 8.0 | 0.00 | 0.00 | 0.00 | 78 | 1014.8 |
| 20260902051203 | 60 | 102 | 4.0 | 8.0 | 0.00 | 0.00 | 0.00 | 77 | 1014.8 |
| 20260902050159 | 61 | 111 | 5.0 | 8.0 | 0.00 | 0.00 | 0.00 | 76 | 1014.8 |
| 20260902045127 | 61 | 117 | 5.0 | 10.0 | 0.00 | 0.00 | 0.00 | 75 | 1014.7 |
| 20260902044146 | 61 | 87 | 6.0 | 10.0 | 0.00 | 0.00 | 0.00 | 75 | 1014.8 |
| 20260902043135 | 61 | 83 | 4.0 | 7.0 | 0.00 | 0.00 | 0.00 | 76 | 1014.8 |
| 20260902042122 | 60 | 80 | 3.0 | 6.0 | 0.00 | 0.00 | 0.00 | 76 | 1014.6 |
| 20260902041129 | 61 | 74 | 3.0 | 6.0 | 0.00 | 0.00 | 0.00 | 76 | 1014.6 |
| 20260902040136 | 62 | 80 | 3.0 | 6.0 | 0.00 | 0.00 | 0.00 | 75 | 1014.7 |
| 20260902035144 | 62 | 78 | 3.0 | 4.0 | 0.00 | 0.00 | 0.00 | 75 | 1014.6 |
| 20260902033002 | 63 | 82 | 3.0 | 6.0 | 0.00 | 0.00 | 0.00 | 71 | 1014.5 |
| 20260902032019 | 63 | 80 | 2.0 | 5.0 | 0.00 | 0.00 | 0.00 | 74 | 1014.6 |
| 20260902031010 | 63 | 77 | 3.0 | 6.0 | 0.00 | 0.00 | 0.00 | 74 | 1014.7 |
| 20260902025959 | 64 | 78 | 4.0 | 6.0 | 0.00 | 0.00 | 0.00 | 73 | 1014.7 |
| 20260902024955 | 65 | 76 | 3.0 | 4.0 | 0.00 | 0.00 | 0.00 | 70 | 1014.6 |
| 20260902023957 | 66 | 76 | 2.0 | 4.0 | 0.00 | 0.00 | 0.00 | 69 | 1014.6 |
| 20260902021841 | 68 | 78 | 2.0 | 4.0 | 0.00 | 0.00 | 0.00 | 65 | 1014.3 |
| 20260902020856 | 69 | 120 | 1.0 | 4.0 | 0.00 | 0.00 | 0.00 | 60 | 1014.4 |
| 20260902015842 | 69 | 129 | 2.0 | 5.0 | 0.00 | 0.00 | 0.00 | 61 | 1014.3 |
| 20260902014850 | 69 | 144 | 2.0 | 5.0 | 0.00 | 0.00 | 0.00 | 58 | 1014.2 |
| 20260902013822 | 70 | 119 | 2.0 | 4.0 | 0.00 | 0.00 | 0.00 | 60 | 1014.3 |
| 20260902011643 | 72 | 109 | 1.0 | 2.0 | 0.00 | 0.00 | 0.00 | 54 | 1014.3 |
| 20260902005428 | 72 | 103 | 1.0 | 2.0 | 0.00 | 0.00 | 0.00 | 52 | 1014.5 |
| 20260902004432 | 73 | 96 | 1.0 | 2.0 | 0.00 | 0.00 | 0.00 | 52 | 1014.5 |
| 20260902003422 | 73 | 80 | 0.0 | 2.0 | 0.00 | 0.00 | 0.00 | 49 | 1014.6 |
| 20260902002430 | 74 | 71 | 0.0 | 0.0 | 0.00 | 0.00 | 0.00 | 48 | 1014.6 |
| 20260902001443 | 74 | 71 | 0.0 | 0.0 | 0.00 | 0.00 | 0.00 | 46 | 1014.6 |
| 20260902000504 | 75 | 71 | 0.0 | 0.0 | 0.00 | 0.00 | 0.00 | 46 | 1014.5 |
| 20260901235429 | 76 | 71 | 0.0 | 0.0 | 0.00 | 0.00 | 0.00 | 44 | 1014.5 |
| 20260901234419 | 76 | 71 | 0.0 | 0.0 | 0.00 | 0.00 | 0.00 | 44 | 1014.6 |
| 20260901233436 | 77 | 71 | 0.0 | 0.0 | 0.00 | 0.00 | 0.00 | 44 | 1014.7 |
| 20260901232413 | 76 | 306 | 0.0 | 0.0 | 0.00 | 0.00 | 0.00 | 40 | 1014.7 |
| 20260901231428 | 77 | 306 | 0.0 | 0.0 | 0.00 | 0.00 | 0.00 | 41 | 1014.9 |
| 20260901230403 | 77 | 306 | 0.0 | 0.0 | 0.00 | 0.00 | 0.00 | 40 | 1014.9 |
| 20260901225349 | 77 | 306 | 0.0 | 0.0 | 0.00 | 0.00 | 0.00 | 41 | 1014.9 |
| 20260901224408 | 77 | 306 | 2.0 | 4.0 | 0.00 | 0.00 | 0.00 | 38 | 1015.0 |
| 20260901223348 | 77 | 284 | 2.0 | 5.0 | 0.00 | 0.00 | 0.00 | 35 | 1014.9 |
| 20260901222400 | 78 | 311 | 2.0 | 4.0 | 0.00 | 0.00 | 0.00 | 35 | 1015.0 |
| 20260901221326 | 79 | 296 | 0.0 | 2.0 | 0.00 | 0.00 | 0.00 | 35 | 1015.0 |
| 20260901215226 | 78 | 288 | 0.0 | 4.0 | 0.00 | 0.00 | 0.00 | 42 | 1015.3 |
| 20260901214250 | 78 | 351 | 0.0 | 6.0 | 0.00 | 0.00 | 0.00 | 42 | 1015.3 |
| 20260901210951 | 78 | 147 | 0.0 | 5.0 | 0.00 | 0.00 | 0.00 | 42 | 1015.4 |
| 20260901205922 | 78 | 155 | 1.0 | 5.0 | 0.00 | 0.00 | 0.00 | 43 | 1015.5 |
| 20260901204922 | 77 | 302 | 0.0 | 7.0 | 0.00 | 0.00 | 0.00 | 44 | 1015.5 |
| 20260901203921 | 76 | 5 | 3.0 | 7.0 | 0.00 | 0.00 | 0.00 | 43 | 1015.6 |
| 20260901201745 | 77 | 310 | 1.0 | 6.0 | 0.00 | 0.00 | 0.00 | 42 | 1015.6 |
| 20260901200752 | 76 | 252 | 2.0 | 7.0 | 0.00 | 0.00 | 0.00 | 45 | 1015.6 |
| 20260901195751 | 76 | 331 | 2.0 | 7.0 | 0.00 | 0.00 | 0.00 | 45 | 1015.7 |
| 20260901194751 | 75 | 245 | 2.0 | 10.0 | 0.00 | 0.00 | 0.00 | 46 | 1015.8 |
| 20260901193809 | 75 | 275 | 5.0 | 10.0 | 0.00 | 0.00 | 0.00 | 45 | 1015.9 |
| 20260901192749 | 75 | 265 | 4.0 | 9.0 | 0.00 | 0.00 | 0.00 | 44 | 1015.9 |
| 20260901191748 | 76 | 254 | 2.0 | 7.0 | 0.00 | 0.00 | 0.00 | 47 | 1015.9 |
| 20260901190740 | 75 | 216 | 2.0 | 9.0 | 0.00 | 0.00 | 0.00 | 49 | 1016.1 |
| 20260901185731 | 74 | 266 | 3.0 | 9.0 | 0.00 | 0.00 | 0.00 | 52 | 1016.3 |
| 20260901184746 | 73 | 302 | 2.0 | 6.0 | 0.00 | 0.00 | 0.00 | 50 | 1016.4 |
| 20260901183731 | 73 | 239 | 2.0 | 6.0 | 0.00 | 0.00 | 0.00 | 53 | 1016.5 |
| 20260901182740 | 72 | 240 | 2.0 | 8.0 | 0.00 | 0.00 | 0.00 | 55 | 1016.5 |
| 20260901181755 | 72 | 260 | 3.0 | 8.0 | 0.00 | 0.00 | 0.00 | 54 | 1016.6 |
| 20260901180745 | 71 | 273 | 3.0 | 8.0 | 0.00 | 0.00 | 0.00 | 54 | 1016.6 |
| 20260901175719 | 71 | 312 | 4.0 | 8.0 | 0.00 | 0.00 | 0.00 | 53 | 1016.7 |
| 20260901174703 | 71 | 300 | 6.0 | 9.0 | 0.00 | 0.00 | 0.00 | 56 | 1016.8 |
| 20260901173703 | 71 | 243 | 5.0 | 9.0 | 0.00 | 0.00 | 0.00 | 56 | 1016.8 |
| 20260901172726 | 71 | 273 | 4.0 | 9.0 | 0.00 | 0.00 | 0.00 | 57 | 1016.9 |
| 20260901171744 | 71 | 297 | 3.0 | 6.0 | 0.00 | 0.00 | 0.00 | 59 | 1016.9 |
| 20260901170748 | 70 | 280 | 2.0 | 6.0 | 0.00 | 0.00 | 0.00 | 60 | 1017.0 |
| 20260901165725 | 70 | 311 | 3.0 | 6.0 | 0.00 | 0.00 | 0.00 | 60 | 1017.0 |
| 20260901164711 | 70 | 266 | 3.0 | 6.0 | 0.00 | 0.00 | 0.00 | 61 | 1017.0 |
| 20260901163710 | 70 | 304 | 4.0 | 8.0 | 0.00 | 0.00 | 0.00 | 62 | 1017.0 |
| 20260901162643 | 70 | 319 | 2.0 | 8.0 | 0.00 | 0.00 | 0.00 | 64 | 1016.9 |
| 20260901161705 | 68 | 300 | 3.0 | 6.0 | 0.00 | 0.01 | 0.00 | 67 | 1016.9 |
| 20260901160706 | 68 | 296 | 3.0 | 6.0 | 0.00 | 0.01 | 0.00 | 68 | 1017.0 |